Weather Roundup
Issued by NWS Springfield, MO

Home | Current Version | Previous Version | Text Only | Print | Product List | Glossary On
Versions: 1 2 3 4 5 6 7 8 9 10 11 12 13 14 15 16 17 18 19 20 21 22 23 24 25 26 27 28 29 30 31 32 33 34 35 36 37 38 39 40 41 42 43 44 45 46 47 48 49 50
000
NZUS99 KSGF 201757
HRRSGF

HOURLY WEATHER
NATIONAL WEATHER SERVICE SPRINGFIELD MO
1200 PM CST MON FEB 20 2017

......SGF CWA......

CITY           SKY/WX    TMP DP  RH WIND       PRES   REMARKS
SPRINGFIELD    CLOUDY    67  59  75 SE24      29.89F
6HR MIN TEMP:  59; 6HR MAX TEMP:  67; 6HR PCP:  0.05;

JOPLIN         CLOUDY    66  60  81 S12       29.89R
6HR MIN TEMP:  60; 6HR MAX TEMP:  66; 6HR PCP:  0.13;

WEST PLAINS    PTSUNNY   71  54  54 S15G23    30.01F
6HR MIN TEMP:  55; 6HR MAX TEMP:  71;

ROLLA          CLOUDY    70  50  49 S20G29    29.94F
6HR MIN TEMP:  58; 6HR MAX TEMP:  70; 6HR PCP: TRACE;

BRANSON        PTSUNNY   66  59  77 SE16G28   29.95F

......SURROUNDING SGF CWA......

CITY           SKY/WX    TMP DP  RH WIND       PRES   REMARKS
CHANUTE        CLOUDY    63  55  75 SW10      29.88F
PARSONS        CLOUDY    63  57  81 SW6       29.89F
COFFEYVILLE    CLOUDY    63  57  81 SW15      29.90R
EMPORIA        CLOUDY    60  55  83 S12       29.86R
HARRISON AR    CLOUDY    65  59  81 S16       29.97F

......KANSAS AND MISSOURI......

CITY           SKY/WX    TMP DP  RH WIND       PRES   REMARKS
KANSAS CTY INT CLOUDY    61  58  90 S15       29.85R
SEDALIA        LGT RAIN  69  58  67 S21       29.87F
ST JOSEPH      CLOUDY    62  59  90 S12       29.82R
ST LOUIS       PTSUNNY   74  52  46 SE17      30.00F
WICHITA        CLOUDY    58  54  86 S15       29.86R
TOPEKA         CLOUDY    63  57  81 S7G18     29.83R
OLATHE         CLOUDY    61  60  97 S12       29.86R

......TENNESSEE......

CITY           SKY/WX    TMP DP  RH WIND       PRES   REMARKS
MEMPHIS        NOT AVBL
NASHVILLE      CLOUDY    71  45  39 SE8       30.15F

......ARKANSAS.......

CITY           SKY/WX    TMP DP  RH WIND       PRES   REMARKS
FAYETTEVILLE   CLOUDY    64  58  80 S14G22    29.93S
FT SMITH       PTSUNNY   66  58  75 VRB3      29.94F
LITTLE ROCK    CLOUDY    74  63  68 S17       29.99F

......OKLAHOMA.......

CITY           SKY/WX    TMP DP  RH WIND       PRES   REMARKS
TULSA          CLOUDY    62  57  83 S8        29.89F
PONCA CITY     CLOUDY    60  53  77 SW9       29.88S
MCALESTER      PTSUNNY   62  55  77 S13G21    29.93F
OKLAHOMA CITY  CLOUDY    58  54  86 S10       29.89F

......IOWA............

CITY           SKY/WX    TMP DP  RH WIND       PRES   REMARKS
DES MOINES     NOT AVBL
QUAD CITIES    CLOUDY    64  51  62 SE17G26   29.94F

......ILLINOIS........

CITY           SKY/WX    TMP DP  RH WIND       PRES   REMARKS
QUINCY         NOT AVBL
CHICAGO        CLOUDY    65  47  52 S16       30.05F




USA.gov is the U.S. government's official web portal to all federal, state and local government web resources and services.